Location: Central Falls
(41.8900°N, 71.3929°W)
Time: 13:00:48
(UTC+00:00)

A-11 Canister half - Pass Details

Date: 08 December 2023
Orbit: 1512 x 1687 km, 47.2° (Epoch: 20 February)

Event Time Altitude Azimuth Distance (km) Brightness Sun altitude
Rises 12:59:20 0° 285° (WNW) 4,916 11.1 8.1°
Reaches altitude 10° 13:05:54 10° 255° (WSW) 3,943 10.9 9.0°
Maximum altitude 13:08:27 11° 240° (WSW) 3,849 11.0 9.4°
Drops below altitude 10° 13:11:01 10° 225° (SW) 3,945 11.2 9.7°
Sets 13:17:40 0° 194° (SSW) 4,921 12.1 10.6°
